Regional Weather Roundup
Issued by NWS

Home | Current Version | Previous Version | Graphics & Text | Print | Product List | Glossary On
Versions: 1 2 3 4 5 6 7 8 9 10 11 12 13 14 15 16 17 18 19 20 21 22 23 24 25 26 27 28 29 30 31 32 33 34 35 36 37 38 39 40 41 42 43 44 45 46 47 48 49 50
270
ASUS44 KJAN 280410
RWRMS

MISSISSIPPI HOURLY WEATHER ROUNDUP
NATIONAL WEATHER SERVICE JACKSON MS
1100 PM CDT SUN JUL 27 2014

NOTE: "FAIR: INDICATES FEW OR NO CLOUDS BELOW 12,000 FEET WITH NO
SIGNIFICANT WEATHER AND/OR OBSTRUCTIONS TO VISIBILITY.

MSZ001>002-007>008-010>013-018>021-025>028-034>036-280500-
NORTHWEST MISSISSIPPI

CITY           SKY/WX    TMP DP  RH WIND       PRES   REMARKS
CLARKSDALE     FAIR      82  79  89 CALM      29.97S HX  93
CLEVELAND      FAIR      81  78  92 SW5       29.97F
GREENWOOD      PTCLDY    78  76  93 S5        29.98S
GREENVILLE     CLEAR     82  75  79 SW7       29.98S
GRENADA        FAIR      81  75  83 CALM      29.98S
OLIVE BRANCH   CLEAR     82  82 100 SW6       29.96R HX  97
OXFORD         FAIR      82  75  78 W6        29.98S
TUNICA         MOCLDY    82  77  83 SW6       29.96S HX  91
$$

MSZ003>006-009-014>017-022>024-029>033-037>039-280500-
NORTHEAST MISSISSIPPI

CITY           SKY/WX    TMP DP  RH WIND       PRES   REMARKS
BELMONT        CLOUDY    81  76  86 SW3       29.97S
COLUMBUS AFB   PTCLDY    80  75  85 SW7       29.98S
CORINTH        FAIR      82  75  78 SW6       29.94S
GOLDN TRIANGLE PTCLDY    81  73  78 W3        29.99F
STARKVILLE     FAIR      79  73  83 CALM      29.99S
TUPELO         PTCLDY    82  76  81 W5        29.96S
$$

MSZ040-058-280500-
CENTRAL MISSISSIPPI

CITY           SKY/WX    TMP DP  RH WIND       PRES   REMARKS
JACKSON INTL   PTCLDY    80  75  84 S3        30.03R
JACKSON HAWKNS PTCLDY    83  73  72 SW5       30.03S
MERIDIAN KEY   PTCLDY    81  74  79 SW5       30.01F
MERIDIAN NAS   PTCLDY    81  74  79 W7        30.01S
RAYMOND        FAIR      81  75  83 SW3       30.03S
VICKSBURG      PTCLDY    80  76  87 SW3       30.02R
$$

MSZ059>079-280500-
SOUTH MISSISSIPPI

CITY           SKY/WX    TMP DP  RH WIND       PRES   REMARKS
BROOKHAVEN     FAIR      77  75  94 CALM      30.07S
COLUMBIA       FAIR      79  77  94 CALM      30.04R
HATTIESBURG    PTCLDY    84  76  76 SW5       30.04S HX  93
MCCOMB         PTCLDY    79  75  87 CALM      30.06R
NATCHEZ        CLEAR     81  75  83 S3        30.05S
PINE BELT      PTCLDY    81  73  78 SW3       30.05S
$$

MSZ080>082-280500-
COASTAL MISSISSIPPI

CITY           SKY/WX    TMP DP  RH WIND       PRES   REMARKS
BILOXI         PTCLDY    84  79  83 VRB7      30.05R HX  96
PASCAGOULA     PTCLDY    82  78  88 SW3       30.04S HX  91
GULFPORT       PTCLDY    86  77  74 CALM      30.04S HX  97
$$



USA.gov is the U.S. government's official web portal to all federal, state and local government web resources and services.